sat.trackr.live / text

‹ back to catalog

STARLINK-4761

NORAD 53830 · 2022-114N

PAYLOAD ACTIVE UNKNOWN

§ Identity

Operator
Country
US
Launch date
2022-09-19
Launch site
AFETR
Launch vehicle
Mass (kg)
RCS (m²)

Purposes: comms

External: N2YO · Heavens-Above · Gunter

§ Orbital elements

Epoch: 2026-09-20T22:06:26.004384Z

Period
93.85 min
Inclination
53.1606°
Eccentricity
0.0001469
Mean motion
15.34388978 rev/d
Perigee alt
461.7 km
Apogee alt
463.7 km
Semi-major
6,840.9 km
B*
1.0293e-5
RAAN
137.9885°
Arg perigee
92.5470°
Mean anomaly
267.5701°
Rev number
22,243

§ Raw data

STARLINK-47611 53830U 22114N   26263.92113431 -.00000029  00000+0  10293-4 0  99922 53830  53.1606 137.9885 0001469  92.5470 267.5701 15.34388978222437

JSON: /api/v1/satellites/53830 · /tle

For live sub-satellite position, see the globe view (requires WebGL).

§ Visibility from observer

Set your observer location to see the next 7 days of passes ≥ 10°. The values pass through the URL so the page stays shareable.

No JS? Fill the form by hand. The geolocation button needs JavaScript.